Overview Statistics Trail Chart Weather Telemetry Raw packets
 

This is the latest recevied packets stored in our database for station/object AQI-WX2. If no packets are shown the sender has not sent any packets the latest 24 hours.

If you compare the raw packets with similar data from other websites it may differ (especially the path), the reason is that we are not collecting packets from the same APRS-IS servers. Each APRS-IS server performes duplicate filtering, and which packet that is considered to be a duplicate may differ depending on which APRS-IS server you receive your data from.

<< 1 2 3 >>

1788690006: HS3LIQ-13>APRS,TCPIP*,qAC,T2CHILE:;AQI-WX2 *061020z1433.59N/10130.04E_.../...g...t089r...p...P...h48b..... AQI:24 RH(%):48 PM1:14 PM10:7 PM25:24 TEMP(C):31.8 Sanam Sai, Pong Ta Long, Pak Chong, Thailand

1788688806: HS3LIQ-13>APRS,TCPIP*,qAC,T2FINLAND:;AQI-WX2 *061000z1433.59N/10130.04E_.../...g...t089r...p...P...h48b..... AQI:27 RH(%):48 PM1:19 PM10:7 PM25:27 TEMP(C):31.7 Sanam Sai, Pong Ta Long, Pak Chong, Thailand

1788687605: HS3LIQ-13>APRS,TCPIP*,qAC,T2PANAMA:;AQI-WX2 *060940z1433.59N/10130.04E_.../...g...t089r...p...P...h47b..... AQI:16 RH(%):47 PM1:6 PM10:5 PM25:16 TEMP(C):32 Sanam Sai, Pong Ta Long, Pak Chong, Thailand

1788686405: HS3LIQ-13>APRS,TCPIP*,qAC,T2SPAIN2:;AQI-WX2 *060920z1433.59N/10130.04E_.../...g...t089r...p...P...h47b..... AQI:26 RH(%):47 PM1:5 PM10:7 PM25:26 TEMP(C):32.09 Sanam Sai, Pong Ta Long, Pak Chong, Thailand

1788685206: HS3LIQ-13>APRS,TCPIP*,qAC,T2UKRAINE:;AQI-WX2 *060900z1433.59N/10130.04E_.../...g...t090r...p...P...h46b..... AQI:24 RH(%):46 PM1:3 PM10:5 PM25:24 TEMP(C):32.3 Sanam Sai, Pong Ta Long, Pak Chong, Thailand

1788684005: HS3LIQ-13>APRS,TCPIP*,qAC,T2CAEAST:;AQI-WX2 *060840z1433.59N/10130.04E_.../...g...t090r...p...P...h44b..... AQI:8 RH(%):44 PM1:0 PM10:3 PM25:8 TEMP(C):32.3 Sanam Sai, Pong Ta Long, Pak Chong, Thailand

1788682805: HS3LIQ-13>APRS,TCPIP*,qAC,T2MEXICO:;AQI-WX2 *060820z1433.59N/10130.04E_.../...g...t090r...p...P...h44b..... AQI:16 RH(%):44 PM1:3 PM10:5 PM25:16 TEMP(C):32.4 Sanam Sai, Pong Ta Long, Pak Chong, Thailand

1788681640: HS3LIQ-13>APRS,TCPIP*,qAC,T2ROMANIA:;AQI-WX2 *060800z1433.59N/10130.04E_.../...g...t090r...p...P...h43b..... AQI:12 RH(%):43 PM1:0 PM10:3 PM25:12 TEMP(C):32.59 Sanam Sai, Pong Ta Long, Pak Chong, Thailand

1788680405: HS3LIQ-13>APRS,TCPIP*,qAC,T2MEXICO:;AQI-WX2 *060740z1433.59N/10130.04E_.../...g...t090r...p...P...h43b..... AQI:10 RH(%):43 PM1:0 PM10:3 PM25:10 TEMP(C):32.59 Sanam Sai, Pong Ta Long, Pak Chong, Thailand

1788679206: HS3LIQ-13>APRS,TCPIP*,qAC,T2OREGON:;AQI-WX2 *060720z1433.59N/10130.04E_.../...g...t090r...p...P...h43b..... AQI:6 RH(%):43 PM1:0 PM10:2 PM25:6 TEMP(C):32.7 Sanam Sai, Pong Ta Long, Pak Chong, Thailand

1788678006: HS3LIQ-13>APRS,TCPIP*,qAC,T2OREGON:;AQI-WX2 *060700z1433.59N/10130.04E_.../...g...t090r...p...P...h44b..... AQI:6 RH(%):44 PM1:0 PM10:3 PM25:6 TEMP(C):32.59 Sanam Sai, Pong Ta Long, Pak Chong, Thailand

1788676805: HS3LIQ-13>APRS,TCPIP*,qAC,T2PANAMA:;AQI-WX2 *060640z1433.59N/10130.04E_.../...g...t090r...p...P...h44b..... AQI:5 RH(%):44 PM1:0 PM10:2 PM25:5 TEMP(C):32.4 Sanam Sai, Pong Ta Long, Pak Chong, Thailand

1788675606: HS3LIQ-13>APRS,TCPIP*,qAC,T2CHILE:;AQI-WX2 *060620z1433.59N/10130.04E_.../...g...t090r...p...P...h45b..... AQI:7 RH(%):45 PM1:3 PM10:2 PM25:7 TEMP(C):32.3 Sanam Sai, Pong Ta Long, Pak Chong, Thailand

1788674406: HS3LIQ-13>APRS,TCPIP*,qAC,T2PANAMA:;AQI-WX2 *060600z1433.59N/10130.04E_.../...g...t089r...p...P...h46b..... AQI:13 RH(%):46 PM1:1 PM10:3 PM25:13 TEMP(C):32.09 Sanam Sai, Pong Ta Long, Pak Chong, Thailand

1788673205: HS3LIQ-13>APRS,TCPIP*,qAC,T2TAS:;AQI-WX2 *060540z1433.59N/10130.04E_.../...g...t089r...p...P...h46b..... AQI:17 RH(%):46 PM1:0 PM10:4 PM25:17 TEMP(C):32 Sanam Sai, Pong Ta Long, Pak Chong, Thailand

1788672005: HS3LIQ-13>APRS,TCPIP*,qAC,T2PERTH:;AQI-WX2 *060520z1433.59N/10130.04E_.../...g...t089r...p...P...h46b..... AQI:10 RH(%):46 PM1:1 PM10:4 PM25:10 TEMP(C):31.8 Sanam Sai, Pong Ta Long, Pak Chong, Thailand

1788670806: HS3LIQ-13>APRS,TCPIP*,qAC,T2IRELAND:;AQI-WX2 *060500z1433.59N/10130.04E_.../...g...t089r...p...P...h47b..... AQI:16 RH(%):47 PM1:2 PM10:4 PM25:16 TEMP(C):31.8 Sanam Sai, Pong Ta Long, Pak Chong, Thailand

1788669605: HS3LIQ-13>APRS,TCPIP*,qAC,T2BC:;AQI-WX2 *060440z1433.59N/10130.04E_.../...g...t089r...p...P...h46b..... AQI:16 RH(%):46 PM1:3 PM10:4 PM25:16 TEMP(C):31.7 Sanam Sai, Pong Ta Long, Pak Chong, Thailand

1788668405: HS3LIQ-13>APRS,TCPIP*,qAC,T2BC:;AQI-WX2 *060420z1433.59N/10130.04E_.../...g...t088r...p...P...h47b..... AQI:17 RH(%):47 PM1:5 PM10:5 PM25:17 TEMP(C):31.6 Sanam Sai, Pong Ta Long, Pak Chong, Thailand

1788667243: HS3LIQ-13>APRS,TCPIP*,qAC,T2PANAMA:;AQI-WX2 *060400z1433.59N/10130.04E_.../...g...t088r...p...P...h48b..... AQI:17 RH(%):48 PM1:3 PM10:4 PM25:17 TEMP(C):31.2 Sanam Sai, Pong Ta Long, Pak Chong, Thailand

1788666005: HS3LIQ-13>APRS,TCPIP*,qAC,T2FINLAND:;AQI-WX2 *060340z1433.59N/10130.04E_.../...g...t087r...p...P...h48b..... AQI:15 RH(%):48 PM1:10 PM10:4 PM25:15 TEMP(C):30.8 Sanam Sai, Pong Ta Long, Pak Chong, Thailand

1788664805: HS3LIQ-13>APRS,TCPIP*,qAC,T2PERTH:;AQI-WX2 *060320z1433.59N/10130.04E_.../...g...t087r...p...P...h48b..... AQI:17 RH(%):48 PM1:6 PM10:4 PM25:17 TEMP(C):31 Sanam Sai, Pong Ta Long, Pak Chong, Thailand

1788663607: HS3LIQ-13>APRS,TCPIP*,qAC,T2UKRAINE:;AQI-WX2 *060300z1433.59N/10130.04E_.../...g...t087r...p...P...h49b..... AQI:14 RH(%):49 PM1:7 PM10:5 PM25:14 TEMP(C):30.8 Sanam Sai, Pong Ta Long, Pak Chong, Thailand

1788662405: HS3LIQ-13>APRS,TCPIP*,qAC,T2PANAMA:;AQI-WX2 *060240z1433.59N/10130.04E_.../...g...t087r...p...P...h50b..... AQI:14 RH(%):50 PM1:5 PM10:6 PM25:14 TEMP(C):30.6 Sanam Sai, Pong Ta Long, Pak Chong, Thailand

1788661206: HS3LIQ-13>APRS,TCPIP*,qAC,T2DENMARK:;AQI-WX2 *060220z1433.59N/10130.04E_.../...g...t086r...p...P...h51b..... AQI:24 RH(%):51 PM1:13 PM10:6 PM25:24 TEMP(C):30.4 Sanam Sai, Pong Ta Long, Pak Chong, Thailand